K5GHS-1 Weather Reports


Display with metric or nautical units.
time (UTC)temp
F
wind
direction
speed
MPH
gust
MPH
rain 1hr
in
rain 24hr
in
rain mn
in
humidity
%
barometer
mb
20260831222821 101 97 1.0 5.0 0.00 0.00 0.00 32 1012.4
20260831222316 102 77 1.0 2.0 0.00 0.00 0.00 31 1012.2
20260831221811 101 133 2.0 3.0 0.00 0.00 0.00 32 1012.3
20260831221307 101 97 3.0 5.0 0.00 0.00 0.00 31 1012.3
20260831220806 102 89 1.0 1.0 0.00 0.00 0.00 31 1012.5
20260831220301 103 104 1.0 1.0 0.00 0.00 0.00 30 1012.3
20260831215756 101 73 1.0 5.0 0.00 0.00 0.00 31 1012.7
20260831215252 102 116 1.0 2.0 0.00 0.00 0.00 31 1012.6
20260831214749 101 69 4.0 6.0 0.00 0.00 0.00 31 1012.5
20260831214246 100 68 1.0 5.0 0.00 0.00 0.00 32 1012.6
20260831213741 101 82 0.0 2.0 0.00 0.00 0.00 32 1012.7
20260831213237 101 87 0.0 5.0 0.00 0.00 0.00 32 1012.6
20260831212732 101 119 3.0 5.0 0.00 0.00 0.00 32 1012.7
20260831212229 102 102 2.0 5.0 0.00 0.00 0.00 31 1012.8
20260831211727 102 52 2.0 3.0 0.00 0.00 0.00 29 1012.8
20260831211222 103 116 1.0 1.0 0.00 0.00 0.00 29 1012.8
20260831210717 101 69 0.0 1.0 0.00 0.00 0.00 30 1013.3
20260831210213 101 77 1.0 3.0 0.00 0.00 0.00 30 1013.2
20260831205712 104 81 1.0 3.0 0.00 0.00 0.00 29 1013.5
20260831205209 103 88 1.0 1.0 0.00 0.00 0.00 29 1013.3
20260831204703 104 77 0.0 2.0 0.00 0.00 0.00 29 1013.6
20260831204203 102 72 1.0 3.0 0.00 0.00 0.00 29 1013.6
20260831203702 102 76 1.0 3.0 0.00 0.00 0.00 30 1013.5
20260831203156 102 76 1.0 5.0 0.00 0.00 0.00 29 1013.7
20260831202654 102 118 1.0 5.0 0.00 0.00 0.00 29 1013.5
20260831202150 102 118 3.0 5.0 0.00 0.00 0.00 29 1013.7
20260831201649 101 76 0.0 3.0 0.00 0.00 0.00 31 1013.6
20260831201148 100 76 0.0 8.0 0.00 0.00 0.00 30 1013.9
20260831200644 100 117 2.0 5.0 0.00 0.00 0.00 29 1013.8
20260831200139 100 151 3.0 5.0 0.00 0.00 0.00 30 1014.0
20260831195635 100 96 0.0 1.0 0.00 0.00 0.00 29 1014.0
20260831195130 100 85 0.0 2.0 0.00 0.00 0.00 30 1014.2
20260831194625 100 112 3.0 6.0 0.00 0.00 0.00 30 1014.3
20260831194120 99 104 1.0 3.0 0.00 0.00 0.00 32 1014.5
20260831193615 98 70 3.0 5.0 0.00 0.00 0.00 32 1014.4
20260831193115 98 73 0.0 5.0 0.00 0.00 0.00 35 1014.4
20260831192605 98 82 2.0 6.0 0.00 0.00 0.00 34 1014.5
20260831192100 99 111 1.0 3.0 0.00 0.00 0.00 33 1014.5
20260831191556 101 353 3.0 3.0 0.00 0.00 0.00 31 1014.4
20260831191052 100 90 0.0 2.0 0.00 0.00 0.00 33 1014.7
20260831190547 100 54 1.0 6.0 0.00 0.00 0.00 33 1014.8
20260831190045 99 85 1.0 2.0 0.00 0.00 0.00 35 1014.5
20260831185541 98 65 2.0 3.0 0.00 0.00 0.00 36 1014.6
20260831185036 99 83 2.0 5.0 0.00 0.00 0.00 35 1014.7
20260831184530 99 138 3.0 5.0 0.00 0.00 0.00 35 1014.5
20260831184026 100 124 6.0 8.0 0.00 0.00 0.00 35 1014.6
20260831183525 100 83 1.0 2.0 0.00 0.00 0.00 34 1015.0
20260831183024 99 82 1.0 7.0 0.00 0.00 0.00 35 1014.8
20260831182519 99 98 1.0 3.0 0.00 0.00 0.00 37 1015.0
20260831182015 99 125 2.0 6.0 0.00 0.00 0.00 36 1015.0
20260831181510 99 81 1.0 5.0 0.00 0.00 0.00 37 1015.0
20260831181005 99 132 0.0 2.0 0.00 0.00 0.00 37 1015.0
20260831180505 99 66 0.0 3.0 0.00 0.00 0.00 39 1015.4
20260831180005 98 74 1.0 2.0 0.00 0.00 0.00 38 1015.5
20260831175500 98 68 1.0 2.0 0.00 0.00 0.00 40 1015.4
20260831174956 99 81 2.0 5.0 0.00 0.00 0.00 39 1015.6
20260831174452 98 51 1.0 2.0 0.00 0.00 0.00 41 1015.7
20260831173950 98 20 1.0 2.0 0.00 0.00 0.00 41 1015.8
20260831173449 97 72 1.0 5.0 0.00 0.00 0.00 42 1015.7
20260831172946 97 82 1.0 3.0 0.00 0.00 0.00 42 1015.7
20260831172441 97 78 1.0 2.0 0.00 0.00 0.00 41 1015.7
20260831171936 97 87 0.0 2.0 0.00 0.00 0.00 42 1015.9
20260831171432 96 91 1.0 2.0 0.00 0.00 0.00 42 1016.1
20260831170928 97 97 1.0 3.0 0.00 0.00 0.00 42 1016.1
20260831170424 97 68 0.0 2.0 0.00 0.00 0.00 41 1015.9
20260831165921 97 104 0.0 3.0 0.00 0.00 0.00 42 1016.1
20260831165417 97 110 3.0 3.0 0.00 0.00 0.00 41 1016.1
20260831164913 97 110 1.0 3.0 0.00 0.00 0.00 42 1016.2
20260831164409 98 88 0.0 0.0 0.00 0.00 0.00 40 1016.1
20260831163904 97 106 0.0 1.0 0.00 0.00 0.00 41 1015.9
20260831163359 96 72 0.0 1.0 0.00 0.00 0.00 42 1016.1
20260831162858 95 74 0.0 2.0 0.00 0.00 0.00 43 1016.2
20260831162353 95 72 2.0 3.0 0.00 0.00 0.00 43 1016.5
20260831161852 96 80 0.0 2.0 0.00 0.00 0.00 42 1016.1
20260831161349 96 84 1.0 2.0 0.00 0.00 0.00 42 1016.3
20260831160843 96 82 0.0 2.0 0.00 0.00 0.00 42 1016.1
20260831160338 96 105 1.0 2.0 0.00 0.00 0.00 42 1016.3
20260831155833 95 99 1.0 2.0 0.00 0.00 0.00 42 1016.4
20260831155332 95 74 0.0 2.0 0.00 0.00 0.00 42 1016.3
20260831154828 96 127 2.0 2.0 0.00 0.00 0.00 41 1016.2
20260831154325 95 70 0.0 1.0 0.00 0.00 0.00 42 1016.1
20260831153823 94 251 1.0 2.0 0.00 0.00 0.00 43 1016.1
20260831153319 94 115 2.0 2.0 0.00 0.00 0.00 43 1016.1
20260831152815 94 84 0.0 3.0 0.00 0.00 0.00 44 1016.0
20260831152311 94 82 1.0 1.0 0.00 0.00 0.00 44 1016.2
20260831151806 93 104 0.0 1.0 0.00 0.00 0.00 46 1016.1
20260831151305 93 79 0.0 1.0 0.00 0.00 0.00 46 1016.0
20260831150800 92 118 0.0 1.0 0.00 0.00 0.00 48 1015.9
20260831150255 91 74 1.0 3.0 0.00 0.00 0.00 48 1016.1
20260831145754 92 122 1.0 2.0 0.00 0.00 0.00 48 1015.9
20260831145251 92 138 0.0 1.0 0.00 0.00 0.00 48 1016.2
20260831144746 91 85 0.0 3.0 0.00 0.00 0.00 49 1016.1
20260831144243 91 121 1.0 2.0 0.00 0.00 0.00 49 1016.0
20260831143742 91 102 1.0 2.0 0.00 0.00 0.00 51 1015.9
20260831143238 90 65 0.0 2.0 0.00 0.00 0.00 53 1016.0
20260831142733 89 78 0.0 2.0 0.00 0.00 0.00 55 1015.8
20260831142228 88 77 1.0 1.0 0.00 0.00 0.00 56 1015.8
20260831141727 88 174 2.0 3.0 0.00 0.00 0.00 56 1016.0
20260831141222 88 89 0.0 2.0 0.00 0.00 0.00 57 1016.0
20260831140722 88 91 0.0 0.0 0.00 0.00 0.00 59 1015.7
20260831140217 87 77 0.0 1.0 0.00 0.00 0.00 60 1015.8
20260831135715 87 70 0.0 2.0 0.00 0.00 0.00 61 1015.8
20260831135211 87 82 0.0 0.0 0.00 0.00 0.00 61 1015.9
20260831134706 86 83 0.0 0.0 0.00 0.00 0.00 62 1015.7
20260831134202 85 70 0.0 1.0 0.00 0.00 0.00 64 1015.5
20260831133701 84 73 0.0 1.0 0.00 0.00 0.00 66 1015.7
20260831133156 83 77 1.0 1.0 0.00 0.00 0.00 68 1015.6
20260831132651 83 87 0.0 1.0 0.00 0.00 0.00 68 1015.4
20260831132151 82 95 1.0 3.0 0.00 0.00 0.00 69 1015.5
20260831131646 82 74 0.0 0.0 0.00 0.00 0.00 70 1015.6
20260831131142 82 74 0.0 1.0 0.00 0.00 0.00 70 1015.4
20260831130636 81 78 0.0 1.0 0.00 0.00 0.00 71 1015.2
20260831130127 81 76 0.0 1.0 0.00 0.00 0.00 72 1015.2
20260831125625 81 79 0.0 1.0 0.00 0.00 0.00 72 1015.1
20260831125121 80 77 0.0 1.0 0.00 0.00 0.00 72 1014.9
20260831124617 80 79 0.0 1.0 0.00 0.00 0.00 72 1015.1
20260831124113 80 85 0.0 0.0 0.00 0.00 0.00 72 1014.8
20260831123612 80 73 0.0 1.0 0.00 0.00 0.00 72 1014.8
20260831123106 80 76 0.0 1.0 0.00 0.00 0.00 72 1014.9
20260831122606 80 80 0.0 1.0 0.00 0.00 0.00 72 1014.7
20260831122102 80 84 0.0 0.0 0.00 0.00 0.00 72 1014.5
20260831121601 80 76 0.0 1.0 0.00 0.00 0.00 72 1014.7
20260831121058 80 70 0.0 0.0 0.00 0.00 0.00 71 1014.6
20260831120557 80 76 0.0 0.0 0.00 0.00 0.00 72 1014.2
20260831120053 81 72 0.0 0.0 0.00 0.00 0.00 71 1014.1
20260831115548 81 74 0.0 0.0 0.00 0.00 0.00 72 1014.3
20260831115043 81 73 0.0 0.0 0.00 0.00 0.00 73 1014.4
20260831114542 81 72 0.0 0.0 0.00 0.00 0.00 72 1014.2
20260831114037 81 72 0.0 0.0 0.00 0.00 0.00 72 1014.2
20260831113537 81 70 0.0 0.0 0.00 0.00 0.00 72 1014.0
20260831113033 81 69 0.0 0.0 0.00 0.00 0.00 72 1014.0
20260831112532 81 81 0.0 1.0 0.00 0.00 0.00 71 1013.9
20260831112027 82 73 0.0 0.0 0.00 0.00 0.00 71 1013.9
20260831111523 82 74 0.0 1.0 0.00 0.00 0.00 71 1014.0
20260831111018 82 69 0.0 0.0 0.00 0.00 0.00 70 1013.7
20260831110513 82 60 0.0 0.0 0.00 0.00 0.00 71 1013.8
20260831110008 82 74 0.0 0.0 0.00 0.00 0.00 70 1013.8
20260831105502 82 73 0.0 0.0 0.00 0.00 0.00 70 1013.5
20260831104957 82 70 0.0 0.0 0.00 0.00 0.00 69 1013.8
20260831104454 83 69 0.0 0.0 0.00 0.00 0.00 69 1013.7
20260831103949 83 68 1.0 1.0 0.00 0.00 0.00 68 1013.7
20260831103444 83 74 0.0 0.0 0.00 0.00 0.00 68 1014.0
20260831102940 83 76 0.0 0.0 0.00 0.00 0.00 67 1013.7
20260831102440 84 94 0.0 2.0 0.00 0.00 0.00 67 1013.6
20260831101934 84 89 0.0 1.0 0.00 0.00 0.00 66 1013.8
20260831101430 84 76 1.0 2.0 0.00 0.00 0.00 66 1013.6
20260831100926 84 101 0.0 2.0 0.00 0.00 0.00 65 1013.9
20260831100421 84 72 0.0 1.0 0.00 0.00 0.00 65 1013.6
20260831095916 84 103 0.0 3.0 0.00 0.00 0.00 65 1013.8
20260831095415 84 72 1.0 1.0 0.00 0.00 0.00 64 1013.5
20260831094910 84 78 0.0 1.0 0.00 0.00 0.00 64 1013.8
20260831094407 84 72 0.0 1.0 0.00 0.00 0.00 63 1013.7
20260831093902 84 75 0.0 0.0 0.00 0.00 0.00 62 1013.6
20260831093357 84 70 0.0 0.0 0.00 0.00 0.00 62 1013.7
20260831092854 84 76 0.0 1.0 0.00 0.00 0.00 62 1013.4
20260831092349 84 75 0.0 1.0 0.00 0.00 0.00 61 1013.6
20260831091844 84 76 0.0 1.0 0.00 0.00 0.00 61 1013.4
20260831091339 84 103 1.0 2.0 0.00 0.00 0.00 60 1013.3
20260831090834 84 67 0.0 0.0 0.00 0.00 0.00 60 1013.2
20260831090331 84 72 0.0 2.0 0.00 0.00 0.00 59 1013.1
20260831085827 84 75 0.0 1.0 0.00 0.00 0.00 58 1013.5
20260831085321 84 74 0.0 1.0 0.00 0.00 0.00 58 1013.3
20260831084816 85 78 0.0 1.0 0.00 0.00 0.00 57 1013.2
20260831084312 85 136 1.0 1.0 0.00 0.00 0.00 56 1013.3
20260831083808 85 80 0.0 1.0 0.00 0.00 0.00 56 1013.4
20260831083303 84 78 0.0 1.0 0.00 0.00 0.00 56 1013.0
20260831082802 85 83 0.0 1.0 0.00 0.00 0.00 56 1013.2
20260831082257 85 75 0.0 0.0 0.00 0.00 0.00 56 1013.1
20260831081752 85 74 0.0 3.0 0.00 0.00 0.00 55 1013.1
20260831081248 85 76 0.0 2.0 0.00 0.00 0.00 55 1013.2
20260831080743 85 73 0.0 1.0 0.00 0.00 0.00 55 1013.3
20260831080238 85 73 0.0 1.0 0.00 0.00 0.00 55 1012.8
20260831075734 84 76 0.0 1.0 0.00 0.00 0.00 56 1013.0
20260831075229 83 99 1.0 2.0 0.00 0.00 0.00 58 1013.0
20260831074728 83 76 0.0 0.0 0.00 0.00 0.00 59 1012.7
20260831074222 83 75 0.0 0.0 0.00 0.00 0.00 59 1012.7
20260831073718 83 70 0.0 0.0 0.00 0.00 0.00 58 1012.7
20260831073217 84 70 0.0 0.0 0.00 0.00 0.00 58 1013.0
20260831072712 84 72 0.0 0.0 0.00 0.00 0.00 58 1012.8
20260831072209 84 71 0.0 0.0 0.00 0.00 0.00 58 1013.1
20260831071708 84 71 0.0 0.0 0.00 0.00 0.00 57 1012.8
20260831071202 84 71 0.0 0.0 0.00 0.00 0.00 57 1012.7
20260831070657 84 71 0.0 0.0 0.00 0.00 0.00 57 1013.0
20260831070151 84 71 0.0 0.0 0.00 0.00 0.00 57 1013.1
20260831065650 84 72 0.0 0.0 0.00 0.00 0.00 57 1013.0
20260831065148 84 71 0.0 0.0 0.00 0.00 0.00 56 1013.0
20260831064643 85 71 0.0 0.0 0.00 0.00 0.00 56 1013.0
20260831064134 85 71 0.0 0.0 0.00 0.00 0.00 56 1012.8
20260831063630 85 72 0.0 0.0 0.00 0.00 0.00 55 1013.2
20260831063125 85 71 0.0 0.0 0.00 0.00 0.00 55 1013.3
20260831062624 85 72 0.0 0.0 0.00 0.00 0.00 55 1013.0
20260831062119 86 72 0.0 0.0 0.00 0.00 0.00 54 1013.1
20260831061617 86 72 0.0 0.0 0.00 0.00 0.00 54 1012.6
20260831061113 86 77 0.0 0.0 0.00 0.00 0.00 53 1012.8
20260831060609 86 74 0.0 0.0 0.00 0.00 0.00 53 1013.2
20260831060109 87 72 0.0 0.0 0.00 0.00 0.00 52 1012.8
20260831055603 86 78 0.0 1.0 0.00 0.00 0.00 52 1012.8
20260831055059 86 81 0.0 0.0 0.00 0.00 0.00 52 1013.1
20260831054558 86 80 0.0 0.0 0.00 0.00 0.00 53 1013.0
20260831054057 87 73 0.0 0.0 0.00 0.00 0.00 52 1013.2
20260831053556 87 74 0.0 0.0 0.00 0.00 0.00 52 1013.1
20260831053051 87 75 1.0 1.0 0.00 0.00 0.00 51 1013.2
20260831052550 86 78 0.0 0.0 0.00 0.00 0.00 53 1013.0
20260831052049 86 73 0.0 0.0 0.00 0.00 0.00 52 1012.8
20260831051547 86 73 0.0 0.0 0.00 0.00 0.00 52 1012.7
20260831051042 86 74 0.0 0.0 0.00 0.00 0.00 52 1013.0
20260831050542 87 75 0.0 0.0 0.00 0.00 0.00 52 1013.0
20260831050040 87 74 0.0 0.0 0.00 0.00 0.00 51 1012.7
20260831045539 87 77 0.0 0.0 0.00 0.00 0.00 51 1012.6
20260831045035 87 74 0.0 0.0 0.00 0.00 0.00 51 1012.7
20260831044530 87 75 0.0 0.0 0.00 0.00 0.00 51 1012.7
20260831044026 87 75 0.0 0.0 0.00 0.00 0.00 50 1012.7
20260831043525 87 71 0.0 0.0 0.00 0.00 0.00 50 1013.0
20260831043021 87 74 0.0 0.0 0.00 0.00 0.00 50 1012.8
20260831042520 87 73 0.0 0.0 0.00 0.00 0.00 50 1013.0
20260831042014 88 74 0.0 0.0 0.00 0.00 0.00 49 1012.7
20260831041504 88 73 0.0 0.0 0.00 0.00 0.00 49 1013.0
20260831041004 88 74 0.0 0.0 0.00 0.00 0.00 49 1013.0
20260831040459 89 77 0.0 1.0 0.00 0.00 0.00 49 1012.7
20260831035956 89 73 0.0 0.0 0.00 0.00 0.00 49 1013.1
20260831035456 89 72 0.0 0.0 0.00 0.00 0.00 48 1012.8
20260831034951 89 75 0.0 1.0 0.00 0.00 0.00 48 1013.1
20260831034445 89 74 0.0 0.0 0.00 0.00 0.00 48 1012.7
20260831033941 89 75 0.0 0.0 0.00 0.00 0.00 48 1012.7
20260831033436 89 88 0.0 0.0 0.00 0.00 0.00 48 1012.7
20260831032931 90 74 0.0 0.0 0.00 0.00 0.00 47 1012.7
20260831032426 90 77 0.0 2.0 0.00 0.00 0.00 46 1012.5
20260831031921 89 79 0.0 0.0 0.00 0.00 0.00 47 1012.5
20260831031420 89 75 0.0 0.0 0.00 0.00 0.00 48 1012.6
20260831030915 89 75 0.0 0.0 0.00 0.00 0.00 47 1012.4
20260831030414 89 81 0.0 0.0 0.00 0.00 0.00 47 1012.4
20260831025913 89 83 0.0 0.0 0.00 0.00 0.00 47 1012.3
20260831025412 90 74 0.0 0.0 0.00 0.00 0.00 47 1012.3
20260831024908 90 76 0.0 0.0 0.00 0.00 0.00 46 1012.4
20260831024407 90 74 0.0 0.0 0.00 0.00 0.00 45 1012.4
20260831023902 90 72 0.0 0.0 0.00 0.00 0.00 45 1012.2
20260831023400 91 76 0.0 0.0 0.00 0.00 0.00 45 1012.4
20260831022855 91 80 0.0 1.0 0.00 0.00 0.00 44 1012.3
20260831022354 90 78 0.0 1.0 0.00 0.00 0.00 45 1012.1
20260831021849 90 79 0.0 1.0 0.00 0.00 0.00 45 1012.2
20260831021348 90 74 0.0 0.0 0.00 0.00 0.00 45 1011.9
20260831020845 90 78 0.0 0.0 0.00 0.00 0.00 44 1011.8
20260831020344 91 79 0.0 0.0 0.00 0.00 0.00 44 1011.9
20260831015840 91 80 0.0 0.0 0.00 0.00 0.00 44 1011.7
20260831015335 91 78 0.0 0.0 0.00 0.00 0.00 43 1011.7
20260831014835 91 79 0.0 0.0 0.00 0.00 0.00 43 1011.6
20260831014330 91 78 0.0 0.0 0.00 0.00 0.00 43 1011.4
20260831013826 91 79 0.0 1.0 0.00 0.00 0.00 43 1011.4
20260831013326 92 78 0.0 0.0 0.00 0.00 0.00 43 1011.6
20260831012821 92 78 0.0 0.0 0.00 0.00 0.00 42 1011.5
20260831012317 92 79 1.0 1.0 0.00 0.00 0.00 41 1011.5
20260831011816 92 78 0.0 0.0 0.00 0.00 0.00 42 1011.4
20260831011311 93 75 0.0 0.0 0.00 0.00 0.00 41 1011.5
20260831010806 93 75 0.0 0.0 0.00 0.00 0.00 41 1011.5
20260831010301 93 79 0.0 0.0 0.00 0.00 0.00 40 1011.4
20260831005757 94 78 0.0 0.0 0.00 0.00 0.00 40 1011.2
20260831005252 94 78 0.0 0.0 0.00 0.00 0.00 39 1011.3
20260831004747 94 79 0.0 0.0 0.00 0.00 0.00 39 1011.3
20260831004243 95 72 0.0 1.0 0.00 0.00 0.00 39 1011.5
20260831003738 95 83 0.0 1.0 0.00 0.00 0.00 39 1011.3
20260831003235 95 100 0.0 1.0 0.00 0.00 0.00 39 1011.2
20260831002734 95 81 0.0 0.0 0.00 0.00 0.00 39 1011.3
20260831002233 96 78 0.0 2.0 0.00 0.00 0.00 39 1011.2
20260831001729 96 85 0.0 5.0 0.00 0.00 0.00 38 1011.3
20260831001224 96 79 0.0 1.0 0.00 0.00 0.00 38 1011.3
20260831000721 96 100 2.0 5.0 0.00 0.00 0.00 37 1011.5
20260831000218 96 86 0.0 2.0 0.00 0.00 0.00 37 1011.3
20260830235715 96 80 0.0 1.0 0.00 0.00 0.00 37 1011.4
20260830235210 97 89 1.0 6.0 0.00 0.00 0.00 37 1011.6
20260830234704 97 149 2.0 3.0 0.00 0.00 0.00 36 1011.5
20260830234201 97 101 3.0 3.0 0.00 0.00 0.00 36 1011.3
20260830233656 97 89 1.0 6.0 0.00 0.00 0.00 36 1011.4
20260830233151 97 75 0.0 2.0 0.00 0.00 0.00 36 1011.4
20260830232647 98 84 1.0 1.0 0.00 0.00 0.00 35 1011.4
20260830232143 98 97 1.0 1.0 0.00 0.00 0.00 35 1011.4
20260830231639 99 98 2.0 3.0 0.00 0.00 0.00 34 1011.7
20260830231138 99 74 1.0 3.0 0.00 0.00 0.00 34 1011.5
20260830230634 100 101 2.0 5.0 0.00 0.00 0.00 33 1011.5
20260830230133 101 52 0.0 1.0 0.00 0.00 0.00 31 1011.4
20260830225628 101 89 4.0 7.0 0.00 0.00 0.00 31 1011.6
20260830225123 101 121 2.0 5.0 0.00 0.00 0.00 32 1011.4
20260830224622 102 110 0.0 0.0 0.00 0.00 0.00 31 1011.5
20260830224118 102 140 2.0 16.0 0.00 0.00 0.00 30 1011.4
20260830223615 101 110 3.0 3.0 0.00 0.00 0.00 30 1011.6